DCSAG CYYT-TXKF

Flight info

Callsign DCSAG
Flight time N/A
Altitude 43000
Route YYT DCT DOPHN/M070F430 DCT 40N060W DCT RNGRS MOMOM1
Aircraft E55P/M-SBDFGHJ2RWY/LB2

Departure

Time 2026-04-18 09:55
Airport St. John's International Airport (CYYT)

Arrival

Time N/A
Airport L.F. Wade International Airport (TXKF)
Time Latitude Longitude Altitude Speed Heading
2026-04-18 09:17 47.61851 -52.73655 465 ft 0 kts 87°
2026-04-18 09:49 47.61851 -52.73654 465 ft 0 kts 87°
2026-04-18 09:49 47.61852 -52.73650 465 ft 1 kts 87°
2026-04-18 09:49 47.61850 -52.73639 465 ft 2 kts 123°
2026-04-18 09:50 47.61833 -52.73638 465 ft 4 kts 226°
2026-04-18 09:50 47.61825 -52.73685 465 ft 6 kts 265°
2026-04-18 09:50 47.61810 -52.73745 465 ft 7 kts 179°
2026-04-18 09:50 47.61763 -52.73738 465 ft 7 kts 174°
2026-04-18 09:51 47.61706 -52.73745 465 ft 10 kts 202°
2026-04-18 09:51 47.61647 -52.73803 465 ft 11 kts 246°
2026-04-18 09:51 47.61598 -52.73854 465 ft 10 kts 175°
2026-04-18 09:51 47.61527 -52.73845 465 ft 10 kts 175°
2026-04-18 09:52 47.61454 -52.73838 465 ft 11 kts 176°
2026-04-18 09:52 47.61376 -52.73831 465 ft 11 kts 176°
2026-04-18 09:52 47.61298 -52.73825 465 ft 10 kts 178°
2026-04-18 09:52 47.61247 -52.73764 465 ft 10 kts 127°
2026-04-18 09:53 47.61206 -52.73677 465 ft 11 kts 124°
2026-04-18 09:53 47.61164 -52.73585 465 ft 11 kts 124°
2026-04-18 09:53 47.61120 -52.73489 465 ft 12 kts 123°
2026-04-18 09:53 47.61137 -52.73393 465 ft 11 kts 37°
2026-04-18 09:54 47.61192 -52.73404 465 ft 9 kts 325°
2026-04-18 09:54 47.61247 -52.73472 465 ft 17 kts 319°
2026-04-18 09:54 47.61490 -52.73771 465 ft 85 kts 324°
2026-04-18 09:54 47.62076 -52.74645 661 ft 143 kts 309°
2026-04-18 09:55 47.62500 -52.76017 1747 ft 146 kts 287°
2026-04-18 09:55 47.62943 -52.77418 2588 ft 169 kts 321°
2026-04-18 09:55 47.63967 -52.78273 3876 ft 151 kts 336°
2026-04-18 09:55 47.64912 -52.78909 5038 ft 162 kts 333°
2026-04-18 09:56 47.66002 -52.79869 5608 ft 187 kts 326°
2026-04-18 09:56 47.67041 -52.81017 6682 ft 198 kts 322°
2026-04-18 09:56 47.68173 -52.82396 7490 ft 210 kts 320°
2026-04-18 09:56 47.69351 -52.83904 7990 ft 244 kts 319°
2026-04-18 09:57 47.70530 -52.85776 8912 ft 249 kts 301°
2026-04-18 09:57 47.70885 -52.88297 10069 ft 258 kts 270°
2026-04-18 09:57 47.70221 -52.90910 10733 ft 294 kts 248°
2026-04-18 09:57 47.68615 -52.93185 11165 ft 332 kts 224°
2026-04-18 09:58 47.66599 -52.94905 12128 ft 339 kts 220°
2026-04-18 09:58 47.64461 -52.96455 12933 ft 344 kts 218°
2026-04-18 09:58 47.62302 -52.97935 13722 ft 347 kts 217°
2026-04-18 09:58 47.60121 -52.99435 14489 ft 346 kts 218°
2026-04-18 09:59 47.57940 -53.00985 15187 ft 346 kts 219°
2026-04-18 09:59 47.55790 -53.02567 15886 ft 345 kts 220°
2026-04-18 09:59 47.54370 -53.03638 16326 ft 345 kts 220°
2026-04-18 10:00 47.50125 -53.06962 17552 ft 345 kts 222°
2026-04-18 10:00 47.48005 -53.08675 18127 ft 346 kts 223°
2026-04-18 10:00 47.45895 -53.10410 18638 ft 347 kts 223°
2026-04-18 10:00 47.43776 -53.12177 19117 ft 349 kts 223°
2026-04-18 10:01 47.41685 -53.13939 19573 ft 351 kts 223°
2026-04-18 10:01 47.39555 -53.15745 20027 ft 353 kts 223°
2026-04-18 10:01 47.37420 -53.17566 20446 ft 355 kts 223°
2026-04-18 10:01 47.35276 -53.19401 20861 ft 357 kts 223°
2026-04-18 10:02 47.33121 -53.21250 21262 ft 359 kts 223°
2026-04-18 10:02 47.30953 -53.23112 21643 ft 361 kts 223°
2026-04-18 10:02 47.28776 -53.24986 22006 ft 363 kts 223°
2026-04-18 10:02 47.26590 -53.26868 22359 ft 365 kts 223°
2026-04-18 10:03 47.24388 -53.28764 22707 ft 367 kts 223°
2026-04-18 10:03 47.22179 -53.30666 23047 ft 369 kts 223°
2026-04-18 10:03 47.19959 -53.32576 23368 ft 370 kts 223°
2026-04-18 10:03 47.17718 -53.34505 23657 ft 373 kts 223°
2026-04-18 10:04 47.15473 -53.36438 23940 ft 375 kts 223°
2026-04-18 10:04 47.13240 -53.38357 24237 ft 377 kts 222°
2026-04-18 10:04 47.10967 -53.40311 24472 ft 380 kts 222°
2026-04-18 10:04 47.08672 -53.42282 24756 ft 381 kts 222°
2026-04-18 10:05 47.06373 -53.44254 24983 ft 384 kts 222°
2026-04-18 10:05 47.04053 -53.46243 25246 ft 386 kts 221°
2026-04-18 10:05 47.01728 -53.48233 25492 ft 388 kts 221°
2026-04-18 10:05 46.99385 -53.50238 25691 ft 391 kts 221°
2026-04-18 10:06 46.97030 -53.52252 25911 ft 393 kts 221°
2026-04-18 10:06 46.94685 -53.54252 26151 ft 394 kts 221°
2026-04-18 10:06 46.92282 -53.56300 26386 ft 396 kts 220°
2026-04-18 10:06 46.89922 -53.58310 26582 ft 398 kts 220°
2026-04-18 10:07 46.87524 -53.60349 26792 ft 400 kts 220°
2026-04-18 10:07 46.85109 -53.62402 26985 ft 401 kts 220°
2026-04-18 10:07 46.82691 -53.64454 27194 ft 403 kts 220°
2026-04-18 10:07 46.80261 -53.66514 27402 ft 404 kts 219°
2026-04-18 10:08 46.77827 -53.68575 27587 ft 405 kts 219°
2026-04-18 10:08 46.75382 -53.70644 27752 ft 407 kts 219°
2026-04-18 10:08 46.72928 -53.72718 27940 ft 408 kts 219°
2026-04-18 10:08 46.70466 -53.74797 28113 ft 409 kts 219°
2026-04-18 10:09 46.67996 -53.76880 28287 ft 410 kts 218°
2026-04-18 10:09 46.65517 -53.78969 28451 ft 411 kts 218°
2026-04-18 10:09 46.63031 -53.81059 28646 ft 411 kts 218°
2026-04-18 10:09 46.60549 -53.83145 28803 ft 412 kts 218°
2026-04-18 10:10 46.58063 -53.85233 28969 ft 413 kts 217°
2026-04-18 10:10 46.55572 -53.87322 29110 ft 414 kts 217°
2026-04-18 10:10 46.53076 -53.89414 29264 ft 414 kts 217°
2026-04-18 10:10 46.50574 -53.91508 29415 ft 415 kts 217°
2026-04-18 10:11 46.48098 -53.93579 29574 ft 415 kts 217°
2026-04-18 10:11 46.45590 -53.95674 29703 ft 416 kts 216°
2026-04-18 10:11 46.43080 -53.97768 29878 ft 416 kts 216°
2026-04-18 10:11 46.40574 -53.99856 30121 ft 412 kts 216°
2026-04-18 10:12 46.38128 -54.01876 30772 ft 401 kts 216°
2026-04-18 10:12 46.35698 -54.03885 30963 ft 400 kts 217°
2026-04-18 10:12 46.33288 -54.05884 31143 ft 399 kts 217°
2026-04-18 10:12 46.30881 -54.07881 31329 ft 399 kts 217°
2026-04-18 10:13 46.28466 -54.09882 31492 ft 398 kts 217°
2026-04-18 10:13 46.26061 -54.11877 31656 ft 398 kts 217°
2026-04-18 10:13 46.23662 -54.13864 31826 ft 397 kts 217°
2026-04-18 10:13 46.21263 -54.15851 31960 ft 397 kts 217°
2026-04-18 10:14 46.18887 -54.17803 32129 ft 398 kts 217°
2026-04-18 10:14 46.16476 -54.19762 32257 ft 397 kts 217°
2026-04-18 10:14 46.14079 -54.21750 32435 ft 397 kts 218°
2026-04-18 10:14 46.11680 -54.23709 32559 ft 396 kts 218°
2026-04-18 10:15 46.09293 -54.25687 32720 ft 396 kts 218°
2026-04-18 10:15 46.06913 -54.27680 32936 ft 390 kts 219°
2026-04-18 10:15 46.04620 -54.29628 33614 ft 377 kts 220°
2026-04-18 10:15 46.02355 -54.31531 33752 ft 378 kts 220°
2026-04-18 10:16 46.00073 -54.33415 33901 ft 377 kts 220°
2026-04-18 10:16 45.97785 -54.35266 34083 ft 377 kts 219°
2026-04-18 10:16 45.95527 -54.37089 34173 ft 377 kts 219°
2026-04-18 10:16 45.93214 -54.38973 34278 ft 378 kts 219°
2026-04-18 10:17 45.90953 -54.40806 34350 ft 379 kts 219°
2026-04-18 10:17 45.86302 -54.44487 34531 ft 381 kts 219°
2026-04-18 10:18 45.81674 -54.48270 34695 ft 383 kts 219°
2026-04-18 10:18 45.77036 -54.52067 34882 ft 383 kts 219°
2026-04-18 10:19 45.72380 -54.55860 34997 ft 386 kts 219°
2026-04-18 10:19 45.67698 -54.59660 35152 ft 387 kts 219°
2026-04-18 10:19 45.65356 -54.61553 35508 ft 379 kts 219°
2026-04-18 10:20 45.63078 -54.63377 35831 ft 375 kts 219°
2026-04-18 10:20 45.58534 -54.67038 35952 ft 378 kts 219°
2026-04-18 10:21 45.53923 -54.70757 36127 ft 379 kts 219°
2026-04-18 10:21 45.49339 -54.74447 36282 ft 381 kts 219°
2026-04-18 10:22 45.44712 -54.78162 36441 ft 382 kts 219°
2026-04-18 10:22 45.40058 -54.81889 36580 ft 384 kts 219°
2026-04-18 10:23 45.35392 -54.85617 36731 ft 385 kts 218°
2026-04-18 10:23 45.30730 -54.89334 36877 ft 387 kts 218°
2026-04-18 10:24 45.26029 -54.93080 37008 ft 388 kts 218°
2026-04-18 10:24 45.21303 -54.96833 37145 ft 389 kts 218°
2026-04-18 10:25 45.16562 -55.00588 37270 ft 391 kts 218°
2026-04-18 10:25 45.11809 -55.04344 37406 ft 391 kts 218°
2026-04-18 10:26 45.07045 -55.08102 37524 ft 392 kts 218°
2026-04-18 10:26 45.02259 -55.11872 37623 ft 394 kts 218°
2026-04-18 10:27 44.97460 -55.15644 37748 ft 394 kts 218°
2026-04-18 10:27 44.92708 -55.19360 38408 ft 381 kts 218°
2026-04-18 10:28 44.88089 -55.22966 38524 ft 382 kts 218°
2026-04-18 10:28 44.83427 -55.26618 38658 ft 384 kts 218°
2026-04-18 10:29 44.78738 -55.30286 38784 ft 385 kts 218°
2026-04-18 10:29 44.74049 -55.33945 38916 ft 386 kts 217°
2026-04-18 10:30 44.69341 -55.37608 39041 ft 387 kts 217°
2026-04-18 10:30 44.64613 -55.41279 39178 ft 388 kts 217°
2026-04-18 10:31 44.59900 -55.44930 39292 ft 389 kts 217°
2026-04-18 10:31 44.55349 -55.48923 39423 ft 384 kts 223°
2026-04-18 10:32 44.51027 -55.53319 39494 ft 384 kts 224°
2026-04-18 10:32 44.46768 -55.57850 39569 ft 385 kts 225°
2026-04-18 10:33 44.42524 -55.62422 39694 ft 385 kts 225°
2026-04-18 10:33 44.38273 -55.67013 39768 ft 386 kts 225°
2026-04-18 10:34 44.34009 -55.71615 39868 ft 387 kts 224°
2026-04-18 10:34 44.29742 -55.76211 39952 ft 388 kts 224°
2026-04-18 10:35 44.25465 -55.80812 40027 ft 389 kts 224°
2026-04-18 10:35 44.21189 -55.85403 40084 ft 390 kts 224°
2026-04-18 10:36 44.16882 -55.90018 40157 ft 391 kts 224°
2026-04-18 10:36 44.12556 -55.94644 40174 ft 392 kts 224°
2026-04-18 10:37 44.08223 -55.99269 40175 ft 393 kts 224°
2026-04-18 10:37 44.03898 -56.03876 40176 ft 393 kts 224°
2026-04-18 10:38 43.99547 -56.08503 40178 ft 394 kts 224°
2026-04-18 10:38 43.95890 -56.12385 40160 ft 395 kts 224°
2026-04-18 10:39 43.91518 -56.17017 40127 ft 395 kts 224°
2026-04-18 10:39 43.87171 -56.21613 40155 ft 394 kts 224°
2026-04-18 10:40 43.82820 -56.26202 40260 ft 392 kts 224°
2026-04-18 10:40 43.78466 -56.30789 40283 ft 393 kts 224°
2026-04-18 10:41 43.74109 -56.35372 40331 ft 392 kts 224°
2026-04-18 10:41 43.71985 -56.37592 40951 ft 378 kts 224°
2026-04-18 10:41 43.69876 -56.39796 40972 ft 380 kts 224°
2026-04-18 10:42 43.65644 -56.44235 41108 ft 382 kts 224°
2026-04-18 10:42 43.61389 -56.48693 41224 ft 385 kts 223°
2026-04-18 10:43 43.57113 -56.53163 41373 ft 386 kts 223°
2026-04-18 10:43 43.52845 -56.57616 41502 ft 388 kts 223°
2026-04-18 10:44 43.48524 -56.62114 41625 ft 390 kts 223°
2026-04-18 10:44 43.44185 -56.66620 41759 ft 391 kts 223°
2026-04-18 10:45 43.39857 -56.71106 41883 ft 392 kts 223°
2026-04-18 10:45 43.35481 -56.75634 41966 ft 394 kts 223°
2026-04-18 10:46 43.31085 -56.80173 42081 ft 395 kts 223°
2026-04-18 10:46 43.26681 -56.84713 42172 ft 397 kts 223°
2026-04-18 10:47 43.22252 -56.89269 42277 ft 398 kts 222°
2026-04-18 10:47 43.17846 -56.93787 42811 ft 387 kts 222°
2026-04-18 10:48 43.13523 -56.98205 43063 ft 385 kts 222°
2026-04-18 10:48 43.11412 -57.00363 43194 ft 383 kts 222°
2026-04-18 10:48 43.09272 -57.02552 43257 ft 384 kts 222°
2026-04-18 10:49 43.04985 -57.06933 43274 ft 384 kts 222°
2026-04-18 10:49 43.00696 -57.11309 43274 ft 384 kts 222°
2026-04-18 10:50 42.96403 -57.15681 43274 ft 385 kts 222°
2026-04-18 10:50 42.92130 -57.20023 43273 ft 385 kts 222°
2026-04-18 10:51 42.87835 -57.24380 43273 ft 385 kts 222°
2026-04-18 10:51 42.83528 -57.28741 43272 ft 385 kts 222°
2026-04-18 10:52 42.79221 -57.33093 43272 ft 385 kts 222°
2026-04-18 10:52 42.74900 -57.37451 43272 ft 385 kts 222°
2026-04-18 10:53 42.70603 -57.41778 43271 ft 386 kts 222°
2026-04-18 10:53 42.66285 -57.46118 43271 ft 386 kts 221°
2026-04-18 10:54 42.61962 -57.50456 43271 ft 386 kts 221°
2026-04-18 10:54 42.57641 -57.54784 43271 ft 386 kts 221°
2026-04-18 10:55 42.53346 -57.59077 43271 ft 386 kts 221°
2026-04-18 10:55 42.49014 -57.63401 43270 ft 386 kts 221°
2026-04-18 10:56 42.44687 -57.67712 43270 ft 386 kts 221°
2026-04-18 10:56 42.40356 -57.72019 43270 ft 386 kts 221°
2026-04-18 10:57 42.36017 -57.76327 43270 ft 386 kts 221°
2026-04-18 10:57 42.31683 -57.80622 43269 ft 386 kts 221°
2026-04-18 10:58 42.27375 -57.84884 43270 ft 386 kts 221°
2026-04-18 10:58 42.23032 -57.89174 43270 ft 386 kts 221°
2026-04-18 10:59 42.18688 -57.93456 43269 ft 386 kts 221°
2026-04-18 10:59 42.14338 -57.97737 43269 ft 386 kts 221°
2026-04-18 11:00 42.09991 -58.02008 43269 ft 387 kts 221°
2026-04-18 11:00 42.05667 -58.06248 43269 ft 387 kts 221°
2026-04-18 11:01 42.01317 -58.10508 43269 ft 387 kts 221°
2026-04-18 11:01 41.96957 -58.14769 43268 ft 387 kts 221°
2026-04-18 11:02 41.90422 -58.21143 43268 ft 387 kts 221°
2026-04-18 11:02 41.86057 -58.25391 43268 ft 387 kts 221°
2026-04-18 11:03 41.81693 -58.29630 43268 ft 387 kts 221°
2026-04-18 11:03 41.77324 -58.33868 43268 ft 387 kts 220°
2026-04-18 11:04 41.72961 -58.38091 43268 ft 387 kts 220°
2026-04-18 11:04 41.68616 -58.42291 43268 ft 387 kts 220°
2026-04-18 11:05 41.64247 -58.46506 43268 ft 387 kts 220°
2026-04-18 11:05 41.59868 -58.50724 43268 ft 387 kts 220°
2026-04-18 11:06 41.55491 -58.54934 43267 ft 387 kts 220°
2026-04-18 11:06 41.51116 -58.59133 43267 ft 387 kts 220°
2026-04-18 11:07 41.46740 -58.63327 43267 ft 387 kts 220°
2026-04-18 11:07 41.42361 -58.67516 43267 ft 388 kts 220°
2026-04-18 11:08 41.37972 -58.71709 43266 ft 388 kts 220°
2026-04-18 11:08 41.33580 -58.75896 43266 ft 388 kts 220°
2026-04-18 11:09 41.29215 -58.80050 43266 ft 388 kts 220°
2026-04-18 11:09 41.24821 -58.84226 43266 ft 388 kts 220°
2026-04-18 11:10 41.20415 -58.88406 43266 ft 388 kts 220°
2026-04-18 11:10 41.16015 -58.92573 43265 ft 388 kts 220°
2026-04-18 11:11 41.11608 -58.96739 43265 ft 389 kts 220°
2026-04-18 11:11 41.07203 -59.00897 43265 ft 389 kts 220°
2026-04-18 11:12 41.02821 -59.05025 43265 ft 389 kts 220°
2026-04-18 11:12 40.98381 -59.09203 43264 ft 389 kts 220°
2026-04-18 11:13 40.93996 -59.13321 43264 ft 389 kts 220°
2026-04-18 11:13 40.89579 -59.17461 43264 ft 389 kts 220°
2026-04-18 11:14 40.85124 -59.21632 43264 ft 389 kts 220°
2026-04-18 11:14 40.80725 -59.25742 43263 ft 389 kts 220°
2026-04-18 11:15 40.76295 -59.29875 43263 ft 390 kts 220°
2026-04-18 11:15 40.72609 -59.33307 43263 ft 390 kts 220°
2026-04-18 11:16 40.67449 -59.38106 43262 ft 390 kts 219°
2026-04-18 11:16 40.63750 -59.41541 43262 ft 390 kts 219°
2026-04-18 11:17 40.59307 -59.45659 43262 ft 390 kts 219°
2026-04-18 11:17 40.54832 -59.49800 43267 ft 390 kts 219°
2026-04-18 11:18 40.50415 -59.53881 43290 ft 389 kts 219°
2026-04-18 11:18 40.45981 -59.57970 43293 ft 390 kts 219°
2026-04-18 11:19 40.41530 -59.62069 43293 ft 390 kts 219°
2026-04-18 11:19 40.37113 -59.66130 43292 ft 390 kts 219°
2026-04-18 11:20 40.32657 -59.70220 43291 ft 390 kts 219°
2026-04-18 11:20 40.28210 -59.74296 43291 ft 390 kts 219°
2026-04-18 11:21 40.23747 -59.78379 43290 ft 390 kts 219°
2026-04-18 11:21 40.19294 -59.82446 43290 ft 390 kts 219°
2026-04-18 11:22 40.14860 -59.86490 43289 ft 391 kts 219°
2026-04-18 11:22 40.10394 -59.90557 43288 ft 391 kts 219°
2026-04-18 11:23 40.05930 -59.94615 43288 ft 391 kts 219°
2026-04-18 11:23 40.01411 -59.98581 43287 ft 393 kts 216°
2026-04-18 11:24 39.96663 -60.02169 43286 ft 394 kts 213°
2026-04-18 11:24 39.91828 -60.05592 43224 ft 396 kts 212°
2026-04-18 11:25 39.86976 -60.08949 43201 ft 397 kts 212°
2026-04-18 11:25 39.82091 -60.12303 43198 ft 397 kts 212°
2026-04-18 11:26 39.77202 -60.15648 43197 ft 397 kts 212°
2026-04-18 11:26 39.72312 -60.18987 43196 ft 397 kts 212°
2026-04-18 11:27 39.67420 -60.22323 43195 ft 397 kts 212°
2026-04-18 11:27 39.62519 -60.25659 43194 ft 397 kts 212°
2026-04-18 11:28 39.57655 -60.28966 43194 ft 397 kts 212°
2026-04-18 11:28 39.52764 -60.32286 43193 ft 397 kts 212°
2026-04-18 11:29 39.47865 -60.35607 43192 ft 397 kts 212°
2026-04-18 11:29 39.42973 -60.38917 43191 ft 397 kts 212°
2026-04-18 11:30 39.38063 -60.42234 43190 ft 397 kts 212°
2026-04-18 11:30 39.33195 -60.45519 43189 ft 397 kts 212°
2026-04-18 11:31 39.28266 -60.48839 43189 ft 397 kts 212°
2026-04-18 11:31 39.23369 -60.52132 43188 ft 397 kts 212°
2026-04-18 11:32 39.18490 -60.55407 43187 ft 397 kts 212°
2026-04-18 11:32 39.13587 -60.58694 43186 ft 397 kts 212°
2026-04-18 11:33 39.08682 -60.61977 43185 ft 397 kts 212°
2026-04-18 11:33 39.03808 -60.65234 43185 ft 397 kts 212°
2026-04-18 11:34 38.98904 -60.68507 43184 ft 397 kts 212°
2026-04-18 11:34 38.94003 -60.71771 43183 ft 397 kts 212°
2026-04-18 11:35 38.89096 -60.75035 43182 ft 397 kts 212°
2026-04-18 11:35 38.84218 -60.78274 43182 ft 396 kts 212°
2026-04-18 11:36 38.79314 -60.81526 43181 ft 396 kts 211°
2026-04-18 11:36 38.74407 -60.84774 43180 ft 396 kts 211°
2026-04-18 11:37 38.69502 -60.88016 43180 ft 396 kts 211°
2026-04-18 11:37 38.64621 -60.91238 43179 ft 396 kts 211°
2026-04-18 11:38 38.59712 -60.94472 43178 ft 396 kts 211°
2026-04-18 11:38 38.54806 -60.97700 43178 ft 396 kts 211°
2026-04-18 11:39 38.49897 -61.00925 43177 ft 396 kts 211°
2026-04-18 11:39 38.44991 -61.04143 43176 ft 396 kts 211°
2026-04-18 11:40 38.40115 -61.07336 43176 ft 396 kts 211°
2026-04-18 11:40 38.35211 -61.10543 43175 ft 396 kts 211°
2026-04-18 11:41 38.30307 -61.13744 43174 ft 396 kts 211°
2026-04-18 11:41 38.25400 -61.16943 43174 ft 396 kts 211°
2026-04-18 11:42 38.20488 -61.20140 43173 ft 396 kts 211°
2026-04-18 11:42 38.15587 -61.23325 43173 ft 396 kts 211°
2026-04-18 11:43 38.10679 -61.26511 43172 ft 396 kts 211°
2026-04-18 11:43 38.05794 -61.29675 43171 ft 396 kts 211°
2026-04-18 11:44 38.00876 -61.32857 43171 ft 396 kts 211°
2026-04-18 11:44 37.95964 -61.36031 43171 ft 396 kts 211°
2026-04-18 11:45 37.91048 -61.39201 43170 ft 396 kts 211°
2026-04-18 11:45 37.86133 -61.42366 43170 ft 396 kts 211°
2026-04-18 11:46 37.81224 -61.45523 43169 ft 396 kts 211°
2026-04-18 11:46 37.76308 -61.48680 43168 ft 396 kts 210°
2026-04-18 11:47 37.71393 -61.51831 43168 ft 396 kts 210°
2026-04-18 11:47 37.66474 -61.54980 43167 ft 396 kts 210°
2026-04-18 11:48 37.61578 -61.58109 43167 ft 396 kts 210°
2026-04-18 11:48 37.56661 -61.61248 43166 ft 396 kts 210°
2026-04-18 11:49 37.51737 -61.64386 43165 ft 396 kts 210°
2026-04-18 11:49 37.46811 -61.67521 43165 ft 396 kts 210°
2026-04-18 11:50 37.41880 -61.70654 43164 ft 396 kts 210°
2026-04-18 11:50 37.36951 -61.73781 43164 ft 396 kts 210°
2026-04-18 11:51 37.32048 -61.76887 43164 ft 396 kts 210°
2026-04-18 11:51 37.27117 -61.80006 43163 ft 397 kts 210°
2026-04-18 11:52 37.22186 -61.83121 43162 ft 397 kts 210°
2026-04-18 11:52 37.17255 -61.86231 43162 ft 397 kts 210°
2026-04-18 11:53 37.12312 -61.89345 43161 ft 397 kts 210°
2026-04-18 11:53 37.07403 -61.92432 43161 ft 397 kts 210°
2026-04-18 11:54 37.02452 -61.95541 43160 ft 397 kts 210°
2026-04-18 11:54 36.97505 -61.98643 43160 ft 397 kts 210°
2026-04-18 11:55 36.92588 -62.01722 43159 ft 397 kts 210°
2026-04-18 11:55 36.87634 -62.04820 43159 ft 398 kts 210°
2026-04-18 11:56 36.82677 -62.07915 43159 ft 398 kts 210°
2026-04-18 11:56 36.77724 -62.11002 43158 ft 398 kts 210°
2026-04-18 11:57 36.73593 -62.13574 43158 ft 398 kts 210°
2026-04-18 11:57 36.68624 -62.16663 43157 ft 399 kts 210°
2026-04-18 11:58 36.63654 -62.19749 43157 ft 399 kts 210°
2026-04-18 11:58 36.58682 -62.22831 43157 ft 399 kts 210°
2026-04-18 11:59 36.53736 -62.25893 43156 ft 399 kts 210°
2026-04-18 11:59 36.48751 -62.28974 43156 ft 399 kts 210°
2026-04-18 12:00 36.43791 -62.32036 43155 ft 399 kts 210°
2026-04-18 12:00 36.38811 -62.35106 43155 ft 399 kts 210°
2026-04-18 12:01 36.31324 -62.39712 43155 ft 400 kts 210°
2026-04-18 12:02 36.26348 -62.42768 43183 ft 399 kts 210°
2026-04-18 12:02 36.21360 -62.45827 43188 ft 399 kts 210°
2026-04-18 12:03 36.16408 -62.48860 43188 ft 400 kts 210°
2026-04-18 12:03 36.11420 -62.51910 43187 ft 400 kts 210°
2026-04-18 12:04 36.06421 -62.54963 43186 ft 400 kts 209°
2026-04-18 12:04 36.01431 -62.58007 43184 ft 400 kts 209°
2026-04-18 12:05 35.96434 -62.61049 43183 ft 400 kts 209°
2026-04-18 12:05 35.91419 -62.64099 43182 ft 401 kts 209°
2026-04-18 12:06 35.86408 -62.67142 43181 ft 401 kts 209°
2026-04-18 12:06 35.81400 -62.70178 43180 ft 401 kts 209°
2026-04-18 12:07 35.76387 -62.73214 43179 ft 401 kts 209°
2026-04-18 12:07 35.71374 -62.76245 43178 ft 401 kts 209°
2026-04-18 12:08 35.66391 -62.79254 43177 ft 401 kts 209°
2026-04-18 12:08 35.61372 -62.82279 43176 ft 402 kts 209°
2026-04-18 12:09 35.56351 -62.85303 43175 ft 402 kts 209°
2026-04-18 12:09 35.51325 -62.88325 43174 ft 402 kts 209°
2026-04-18 12:10 35.46300 -62.91342 43173 ft 402 kts 209°
2026-04-18 12:10 35.41271 -62.94357 43173 ft 402 kts 209°
2026-04-18 12:11 35.36268 -62.97353 43172 ft 402 kts 209°
2026-04-18 12:11 35.31232 -63.00365 43171 ft 402 kts 209°
2026-04-18 12:12 35.26194 -63.03373 43170 ft 402 kts 209°
2026-04-18 12:12 35.21161 -63.06375 43168 ft 402 kts 209°
2026-04-18 12:13 35.16126 -63.09373 43167 ft 402 kts 209°
2026-04-18 12:13 35.11092 -63.12368 43166 ft 402 kts 209°
2026-04-18 12:14 35.06347 -63.15919 43166 ft 399 kts 219°
2026-04-18 12:14 35.02007 -63.20118 43165 ft 398 kts 222°
2026-04-18 12:15 34.97806 -63.24514 43158 ft 398 kts 223°
2026-04-18 12:15 34.93647 -63.28969 43156 ft 398 kts 224°
2026-04-18 12:16 34.89492 -63.33441 43156 ft 398 kts 224°
2026-04-18 12:16 34.85348 -63.37899 43155 ft 398 kts 224°
2026-04-18 12:17 34.81214 -63.42338 43155 ft 398 kts 224°
2026-04-18 12:17 34.77058 -63.46793 43154 ft 398 kts 224°
2026-04-18 12:18 34.72901 -63.51240 43154 ft 398 kts 223°
2026-04-18 12:18 34.68765 -63.55657 43154 ft 398 kts 223°
2026-04-18 12:19 34.64596 -63.60098 43154 ft 398 kts 223°
2026-04-18 12:19 34.60423 -63.64535 43153 ft 398 kts 223°
2026-04-18 12:20 34.56248 -63.68969 43012 ft 401 kts 223°
2026-04-18 12:20 34.54175 -63.71171 42526 ft 402 kts 223°
2026-04-18 12:20 34.52070 -63.73404 42068 ft 401 kts 223°
2026-04-18 12:20 34.49972 -63.75628 41618 ft 400 kts 223°
2026-04-18 12:21 34.47878 -63.77845 41167 ft 398 kts 223°
2026-04-18 12:21 34.45790 -63.80055 40716 ft 396 kts 223°
2026-04-18 12:21 34.43717 -63.82247 40266 ft 394 kts 223°
2026-04-18 12:21 34.41656 -63.84425 39816 ft 392 kts 222°
2026-04-18 12:22 34.39605 -63.86592 39365 ft 389 kts 222°
2026-04-18 12:22 34.37573 -63.88737 38915 ft 386 kts 222°
2026-04-18 12:22 34.35554 -63.90866 38465 ft 383 kts 222°
2026-04-18 12:22 34.33579 -63.92947 38021 ft 381 kts 222°
2026-04-18 12:23 34.31583 -63.95046 37570 ft 378 kts 222°
2026-04-18 12:23 34.29603 -63.97130 37118 ft 376 kts 222°
2026-04-18 12:23 34.27634 -63.99201 36669 ft 373 kts 222°
2026-04-18 12:23 34.25678 -64.01258 36218 ft 371 kts 222°
2026-04-18 12:24 34.23736 -64.03299 35768 ft 369 kts 223°
2026-04-18 12:24 34.21801 -64.05332 35316 ft 367 kts 223°
2026-04-18 12:24 34.19879 -64.07350 34865 ft 364 kts 223°
2026-04-18 12:24 34.17969 -64.09355 34415 ft 362 kts 223°
2026-04-18 12:25 34.16072 -64.11344 33965 ft 361 kts 223°
2026-04-18 12:25 34.14181 -64.13326 33514 ft 359 kts 223°
2026-04-18 12:25 34.12296 -64.15300 33063 ft 358 kts 223°
2026-04-18 12:25 34.10415 -64.17270 32612 ft 357 kts 223°
2026-04-18 12:26 34.08543 -64.19228 32162 ft 356 kts 223°
2026-04-18 12:26 34.06673 -64.21184 31711 ft 355 kts 223°
2026-04-18 12:26 34.04805 -64.23136 31260 ft 354 kts 223°
2026-04-18 12:26 34.02939 -64.25085 30808 ft 354 kts 223°
2026-04-18 12:27 34.01076 -64.27029 30358 ft 354 kts 223°
2026-04-18 12:27 33.99217 -64.28968 29908 ft 354 kts 223°
2026-04-18 12:27 33.97356 -64.30908 29457 ft 354 kts 223°
2026-04-18 12:27 33.95521 -64.32819 29014 ft 353 kts 223°
2026-04-18 12:28 33.93657 -64.34758 28565 ft 354 kts 223°
2026-04-18 12:28 33.91794 -64.36697 28114 ft 354 kts 223°
2026-04-18 12:28 33.89924 -64.38641 27662 ft 354 kts 223°
2026-04-18 12:28 33.88060 -64.40578 27212 ft 354 kts 222°
2026-04-18 12:29 33.86212 -64.42498 26766 ft 355 kts 223°
2026-04-18 12:29 33.84342 -64.44438 26318 ft 355 kts 223°
2026-04-18 12:29 33.82470 -64.46380 25868 ft 355 kts 223°
2026-04-18 12:29 33.80593 -64.48325 25418 ft 356 kts 223°
2026-04-18 12:30 33.78709 -64.50277 24966 ft 356 kts 223°
2026-04-18 12:30 33.76830 -64.52222 24516 ft 357 kts 223°
2026-04-18 12:30 33.74948 -64.54170 24066 ft 358 kts 223°
2026-04-18 12:30 33.73059 -64.56123 23615 ft 358 kts 223°
2026-04-18 12:31 33.71167 -64.58079 23164 ft 359 kts 222°
2026-04-18 12:31 33.69274 -64.60034 22714 ft 359 kts 223°
2026-04-18 12:31 33.67375 -64.61992 22267 ft 359 kts 222°
2026-04-18 12:31 33.65477 -64.63948 21822 ft 360 kts 222°
2026-04-18 12:32 33.63583 -64.65899 21374 ft 360 kts 222°
2026-04-18 12:32 33.61674 -64.67865 20922 ft 360 kts 222°
2026-04-18 12:32 33.59768 -64.69828 20471 ft 361 kts 222°
2026-04-18 12:32 33.57886 -64.71764 20027 ft 359 kts 222°
2026-04-18 12:33 33.56003 -64.73698 19576 ft 353 kts 222°
2026-04-18 12:33 33.54157 -64.75593 19126 ft 348 kts 223°
2026-04-18 12:33 33.52324 -64.77474 18674 ft 344 kts 222°
2026-04-18 12:33 33.50514 -64.79331 18223 ft 341 kts 222°
2026-04-18 12:34 33.48712 -64.81179 17772 ft 340 kts 222°
2026-04-18 12:34 33.46921 -64.83016 17322 ft 338 kts 222°
2026-04-18 12:34 33.45136 -64.84847 16871 ft 337 kts 222°
2026-04-18 12:34 33.43353 -64.86675 16420 ft 337 kts 222°
2026-04-18 12:35 33.41574 -64.88498 15970 ft 336 kts 222°
2026-04-18 12:35 33.39792 -64.90309 15519 ft 336 kts 220°
2026-04-18 12:35 33.38468 -64.91287 15217 ft 339 kts 205°
2026-04-18 12:35 33.36137 -64.91760 14767 ft 346 kts 179°
2026-04-18 12:36 33.33803 -64.91039 14325 ft 345 kts 160°
2026-04-18 12:36 33.31696 -64.89767 13879 ft 333 kts 153°
2026-04-18 12:36 33.29753 -64.88342 13429 ft 323 kts 150°
2026-04-18 12:36 33.27880 -64.86919 12977 ft 315 kts 151°
2026-04-18 12:37 33.26028 -64.85563 12525 ft 309 kts 152°
2026-04-18 12:37 33.24178 -64.84304 12078 ft 304 kts 154°
2026-04-18 12:37 33.22337 -64.83146 11628 ft 295 kts 156°
2026-04-18 12:37 33.20509 -64.82081 11175 ft 288 kts 158°
2026-04-18 12:38 33.18702 -64.81100 10724 ft 284 kts 159°
2026-04-18 12:38 33.16918 -64.80189 10278 ft 280 kts 160°
2026-04-18 12:38 33.15120 -64.79318 9827 ft 278 kts 161°
2026-04-18 12:38 33.13319 -64.78482 9375 ft 276 kts 162°
2026-04-18 12:39 33.11533 -64.77681 8925 ft 274 kts 162°
2026-04-18 12:39 33.09743 -64.76899 8473 ft 273 kts 163°
2026-04-18 12:39 33.07962 -64.76137 8021 ft 271 kts 163°
2026-04-18 12:39 33.06187 -64.75388 7572 ft 270 kts 163°
2026-04-18 12:40 33.04419 -64.74651 7121 ft 269 kts 163°
2026-04-18 12:40 33.02647 -64.73918 6669 ft 268 kts 163°
2026-04-18 12:40 33.00889 -64.73194 6217 ft 267 kts 164°
2026-04-18 12:40 32.99157 -64.72484 5773 ft 266 kts 164°
2026-04-18 12:41 32.97411 -64.71772 5323 ft 265 kts 164°
2026-04-18 12:41 32.95694 -64.71071 4872 ft 256 kts 163°
2026-04-18 12:41 32.94030 -64.70392 4420 ft 249 kts 163°
2026-04-18 12:41 32.92408 -64.69732 3969 ft 244 kts 164°
2026-04-18 12:42 32.90814 -64.69084 3518 ft 240 kts 163°
2026-04-18 12:42 32.89251 -64.68450 3243 ft 231 kts 163°
2026-04-18 12:42 32.87739 -64.67836 3140 ft 228 kts 164°
2026-04-18 12:42 32.86224 -64.67224 3064 ft 231 kts 164°
2026-04-18 12:43 32.84704 -64.66610 3043 ft 230 kts 164°
2026-04-18 12:43 32.83206 -64.66005 3034 ft 229 kts 164°
2026-04-18 12:43 32.81679 -64.65387 3036 ft 228 kts 164°
2026-04-18 12:43 32.80178 -64.64781 3036 ft 227 kts 164°
2026-04-18 12:44 32.78699 -64.64183 3036 ft 227 kts 164°
2026-04-18 12:44 32.77204 -64.63574 3008 ft 225 kts 163°
2026-04-18 12:44 32.75742 -64.62973 3058 ft 220 kts 163°
2026-04-18 12:44 32.74295 -64.62380 3069 ft 221 kts 164°
2026-04-18 12:45 32.72840 -64.61788 3120 ft 221 kts 165°
2026-04-18 12:45 32.71351 -64.61210 2961 ft 231 kts 164°
2026-04-18 12:45 32.69821 -64.60586 3461 ft 232 kts 164°
2026-04-18 12:45 32.68223 -64.59948 2997 ft 254 kts 164°
2026-04-18 12:46 32.66630 -64.59312 3214 ft 238 kts 165°
2026-04-18 12:46 32.65018 -64.58699 3040 ft 244 kts 163°
2026-04-18 12:46 32.63440 -64.58090 3129 ft 240 kts 165°
2026-04-18 12:46 32.61841 -64.57460 3014 ft 231 kts 164°
2026-04-18 12:47 32.60328 -64.56824 3149 ft 238 kts 164°
2026-04-18 12:47 32.58697 -64.56155 3277 ft 253 kts 164°
2026-04-18 12:47 32.56932 -64.55457 2815 ft 279 kts 163°
2026-04-18 12:47 32.55155 -64.54760 3133 ft 272 kts 163°
2026-04-18 12:48 32.53399 -64.54058 3177 ft 254 kts 163°
2026-04-18 12:48 32.51785 -64.53384 3060 ft 245 kts 162°
2026-04-18 12:48 32.50267 -64.52610 3086 ft 232 kts 155°
2026-04-18 12:48 32.48879 -64.51551 3164 ft 246 kts 146°
2026-04-18 12:49 32.47553 -64.50295 3206 ft 250 kts 141°
2026-04-18 12:49 32.46290 -64.48925 4340 ft 243 kts 139°
2026-04-18 12:49 32.45028 -64.47506 4051 ft 276 kts 139°
2026-04-18 12:49 32.43402 -64.46238 3070 ft 278 kts 172°
2026-04-18 12:50 32.41531 -64.46035 2696 ft 282 kts 179°
2026-04-18 12:50 32.39441 -64.45979 2270 ft 308 kts 181°
2026-04-18 12:50 32.37327 -64.46056 2506 ft 295 kts 183°
2026-04-18 12:50 32.35342 -64.46405 2098 ft 290 kts 200°
2026-04-18 12:51 32.33807 -64.47714 1878 ft 270 kts 231°
2026-04-18 12:51 32.32851 -64.49718 1788 ft 303 kts 250°
2026-04-18 12:51 32.32075 -64.51870 1947 ft 282 kts 247°
2026-04-18 12:51 32.31140 -64.53994 2524 ft 317 kts 242°
2026-04-18 12:52 32.29969 -64.56246 3822 ft 326 kts 239°
2026-04-18 12:52 32.28870 -64.58398 6344 ft 268 kts 238°
2026-04-18 12:52 32.27924 -64.60262 8480 ft 278 kts 240°
2026-04-18 12:52 32.26945 -64.62330 8806 ft 306 kts 249°
2026-04-18 12:53 32.26870 -64.64898 9106 ft 321 kts 282°
2026-04-18 12:53 32.27852 -64.67268 9688 ft 329 kts 305°
2026-04-18 12:53 32.29223 -64.69449 10367 ft 329 kts 298°
2026-04-18 12:53 32.30102 -64.71941 11323 ft 329 kts 285°
2026-04-18 12:54 32.30679 -64.74586 12850 ft 331 kts 281°
2026-04-18 12:54 32.31140 -64.77303 14298 ft 358 kts 279°
2026-04-18 12:54 32.31603 -64.80096 16202 ft 337 kts 279°
2026-04-18 12:54 32.32060 -64.82854 16952 ft 346 kts 279°
2026-04-18 12:55 32.32510 -64.85664 17731 ft 347 kts 278°
2026-04-18 12:55 32.32927 -64.88490 18398 ft 351 kts 278°
2026-04-18 12:55 32.33333 -64.91342 19092 ft 352 kts 276°
2026-04-18 12:55 32.33709 -64.94225 19656 ft 357 kts 277°
2026-04-18 12:56 32.34134 -64.97122 20293 ft 358 kts 278°
2026-04-18 12:56 32.34562 -64.99998 20832 ft 361 kts 278°
2026-04-18 12:56 32.35004 -65.02961 21371 ft 363 kts 278°
2026-04-18 12:56 32.35442 -65.05875 21876 ft 365 kts 278°
2026-04-18 12:57 32.36018 -65.08812 22356 ft 369 kts 288°
2026-04-18 12:57 32.37162 -65.11594 22828 ft 374 kts 298°
2026-04-18 12:57 32.38575 -65.14151 23255 ft 378 kts 302°
2026-04-18 12:57 32.40145 -65.16656 23670 ft 380 kts 304°
2026-04-18 12:58 32.41789 -65.19130 24061 ft 383 kts 306°
2026-04-18 12:58 32.43474 -65.21595 24440 ft 385 kts 306°
2026-04-18 12:58 32.45175 -65.24049 24826 ft 387 kts 306°
2026-04-18 12:58 32.46896 -65.26512 25173 ft 389 kts 306°
2026-04-18 12:59 32.48631 -65.28985 25518 ft 391 kts 306°
2026-04-18 12:59 32.50376 -65.31462 25859 ft 392 kts 306°
2026-04-18 12:59 32.52130 -65.33949 26172 ft 394 kts 307°
2026-04-18 12:59 32.53893 -65.36444 26496 ft 395 kts 306°
2026-04-18 13:00 32.55645 -65.38920 26793 ft 397 kts 307°
2026-04-18 13:00 32.57325 -65.41511 27073 ft 396 kts 301°
2026-04-18 13:00 32.58777 -65.44283 27379 ft 395 kts 297°
2026-04-18 13:00 32.60093 -65.47146 27642 ft 396 kts 294°
2026-04-18 13:01 32.61335 -65.50066 27890 ft 397 kts 293°
2026-04-18 13:01 32.62539 -65.53019 28160 ft 397 kts 292°
2026-04-18 13:01 32.63724 -65.55990 28386 ft 399 kts 292°
2026-04-18 13:01 32.64905 -65.58985 28612 ft 400 kts 292°
2026-04-18 13:02 32.66079 -65.61983 28837 ft 401 kts 292°
2026-04-18 13:02 32.67257 -65.64992 29054 ft 402 kts 292°
2026-04-18 13:02 32.68437 -65.68001 29251 ft 403 kts 292°
2026-04-18 13:02 32.69624 -65.71021 29447 ft 404 kts 292°
2026-04-18 13:03 32.70819 -65.74057 29634 ft 405 kts 292°
2026-04-18 13:03 32.73197 -65.80089 30009 ft 407 kts 292°
2026-04-18 13:03 32.74398 -65.83134 30186 ft 408 kts 292°
2026-04-18 13:04 32.75590 -65.86174 30744 ft 397 kts 292°
2026-04-18 13:04 32.76756 -65.89131 31099 ft 395 kts 292°
2026-04-18 13:04 32.77926 -65.92095 31270 ft 396 kts 292°
2026-04-18 13:04 32.79098 -65.95066 31433 ft 398 kts 292°
2026-04-18 13:05 32.80276 -65.98048 31597 ft 399 kts 292°
2026-04-18 13:05 32.81454 -66.01033 31785 ft 399 kts 292°
2026-04-18 13:05 32.82634 -66.04025 32013 ft 398 kts 292°
2026-04-18 13:05 32.83810 -66.07007 32164 ft 399 kts 292°
2026-04-18 13:06 32.84990 -66.10004 32315 ft 400 kts 292°
2026-04-18 13:06 32.86172 -66.13006 32461 ft 401 kts 292°
2026-04-18 13:06 32.87354 -66.16015 32602 ft 402 kts 292°
2026-04-18 13:06 32.88536 -66.19022 32879 ft 398 kts 292°
2026-04-18 13:07 32.89689 -66.21949 33516 ft 387 kts 292°
2026-04-18 13:07 32.90833 -66.24862 33635 ft 389 kts 292°
2026-04-18 13:07 32.91977 -66.27778 33808 ft 389 kts 292°
2026-04-18 13:07 32.93122 -66.30701 33958 ft 390 kts 292°
2026-04-18 13:08 32.94269 -66.33633 34098 ft 390 kts 292°
2026-04-18 13:08 32.95414 -66.36564 34238 ft 391 kts 292°
2026-04-18 13:08 32.96550 -66.39474 34369 ft 392 kts 292°
2026-04-18 13:08 32.97702 -66.42426 34495 ft 393 kts 292°
2026-04-18 13:09 32.98853 -66.45379 34619 ft 393 kts 292°
2026-04-18 13:09 33.00006 -66.48340 34740 ft 394 kts 292°
2026-04-18 13:09 33.01165 -66.51313 34860 ft 395 kts 292°
2026-04-18 13:09 33.02321 -66.54284 34983 ft 396 kts 292°
2026-04-18 13:10 33.03483 -66.57274 35092 ft 396 kts 292°
2026-04-18 13:10 33.04642 -66.60258 35203 ft 397 kts 292°
2026-04-18 13:10 33.05783 -66.63194 35830 ft 384 kts 292°
2026-04-18 13:10 33.06907 -66.66091 35952 ft 385 kts 292°
2026-04-18 13:11 33.08030 -66.68990 36070 ft 386 kts 292°
2026-04-18 13:11 33.09157 -66.71903 36189 ft 387 kts 292°
2026-04-18 13:11 33.10285 -66.74825 36316 ft 388 kts 292°
2026-04-18 13:11 33.11413 -66.77745 36429 ft 388 kts 292°
2026-04-18 13:12 33.12543 -66.80674 36542 ft 389 kts 292°
2026-04-18 13:12 33.13676 -66.83616 36652 ft 390 kts 292°
2026-04-18 13:12 33.14809 -66.86556 36773 ft 390 kts 292°
2026-04-18 13:12 33.15930 -66.89471 36881 ft 391 kts 292°
2026-04-18 13:13 33.17067 -66.92428 36988 ft 392 kts 292°
2026-04-18 13:13 33.18203 -66.95385 37067 ft 393 kts 292°
2026-04-18 13:13 33.19344 -66.98357 37174 ft 394 kts 292°
2026-04-18 13:13 33.20486 -67.01333 37273 ft 394 kts 292°
2026-04-18 13:14 33.21628 -67.04313 37374 ft 395 kts 292°
2026-04-18 13:14 33.22773 -67.07303 37460 ft 396 kts 292°
2026-04-18 13:14 33.25066 -67.13296 37639 ft 397 kts 292°
2026-04-18 13:15 33.26213 -67.16298 37900 ft 391 kts 292°
2026-04-18 13:15 33.27324 -67.19204 38389 ft 383 kts 292°
2026-04-18 13:15 33.29543 -67.25025 38561 ft 386 kts 292°
2026-04-18 13:16 33.31771 -67.30883 38752 ft 387 kts 292°
2026-04-18 13:16 33.33645 -67.35819 38893 ft 389 kts 293°
2026-04-18 13:17 33.34749 -67.38731 38995 ft 390 kts 292°
2026-04-18 13:17 33.35869 -67.41686 39087 ft 391 kts 293°
2026-04-18 13:17 33.36991 -67.44650 39188 ft 391 kts 293°
2026-04-18 13:17 33.38114 -67.47619 39276 ft 392 kts 293°
2026-04-18 13:18 33.40366 -67.53579 39427 ft 394 kts 293°
2026-04-18 13:18 33.42627 -67.59575 39589 ft 395 kts 293°
2026-04-18 13:19 33.44897 -67.65603 39761 ft 396 kts 293°
2026-04-18 13:19 33.47160 -67.71624 39915 ft 397 kts 293°
2026-04-18 13:20 33.49431 -67.77677 40023 ft 399 kts 293°
2026-04-18 13:20 33.51690 -67.83709 40158 ft 400 kts 293°
2026-04-18 13:21 33.53973 -67.89816 40281 ft 401 kts 293°
2026-04-18 13:21 33.55093 -67.92813 40892 ft 387 kts 294°
2026-04-18 13:21 33.56187 -67.95747 41026 ft 387 kts 294°
2026-04-18 13:22 33.58390 -68.01661 41179 ft 388 kts 294°
2026-04-18 13:22 33.59489 -68.04616 41285 ft 388 kts 294°
2026-04-18 13:22 33.60588 -68.07575 41360 ft 389 kts 294°
2026-04-18 13:23 33.62792 -68.13514 41511 ft 390 kts 294°
2026-04-18 13:23 33.65001 -68.19477 41668 ft 391 kts 294°
2026-04-18 13:24 33.67197 -68.25416 41817 ft 392 kts 294°
2026-04-18 13:24 33.69409 -68.31409 41945 ft 393 kts 294°
2026-04-18 13:25 33.71621 -68.37413 42067 ft 394 kts 294°
2026-04-18 13:25 33.73835 -68.43431 42349 ft 389 kts 294°
2026-04-18 13:26 33.74916 -68.46375 42674 ft 384 kts 294°
2026-04-18 13:26 33.75988 -68.49299 42867 ft 381 kts 294°
2026-04-18 13:26 33.77057 -68.52215 43020 ft 380 kts 294°
2026-04-18 13:26 33.78121 -68.55119 43115 ft 380 kts 294°
2026-04-18 13:27 33.80249 -68.60938 43153 ft 381 kts 294°
2026-04-18 13:27 33.82390 -68.66802 43153 ft 383 kts 294°
2026-04-18 13:28 33.84539 -68.72699 43152 ft 385 kts 294°
2026-04-18 13:28 33.86683 -68.78589 43151 ft 387 kts 294°
2026-04-18 13:29 33.88841 -68.84531 43150 ft 388 kts 294°
2026-04-18 13:29 33.91007 -68.90507 43149 ft 389 kts 294°
2026-04-18 13:30 33.93171 -68.96488 43149 ft 390 kts 294°
2026-04-18 13:30 33.95338 -69.02486 43148 ft 391 kts 294°
2026-04-18 13:31 33.97503 -69.08492 43147 ft 391 kts 294°
2026-04-18 13:31 33.99668 -69.14510 43147 ft 391 kts 295°
2026-04-18 13:32 34.01833 -69.20538 43146 ft 392 kts 295°
2026-04-18 13:32 34.03983 -69.26533 43146 ft 392 kts 295°
2026-04-18 13:33 34.06149 -69.32588 43145 ft 392 kts 295°
2026-04-18 13:33 34.08308 -69.38633 43144 ft 393 kts 295°
2026-04-18 13:34 34.10464 -69.44681 43144 ft 393 kts 295°
2026-04-18 13:34 34.12622 -69.50746 43143 ft 393 kts 295°
2026-04-18 13:35 34.14776 -69.56811 43142 ft 393 kts 295°
2026-04-18 13:35 34.16927 -69.62879 43140 ft 393 kts 295°
2026-04-18 13:36 34.19061 -69.68913 43138 ft 392 kts 295°
2026-04-18 13:36 34.21203 -69.74979 43138 ft 392 kts 295°
2026-04-18 13:37 34.23331 -69.81017 43136 ft 392 kts 295°
2026-04-18 13:37 34.25466 -69.87084 43135 ft 392 kts 295°
2026-04-18 13:38 34.27600 -69.93162 43134 ft 392 kts 295°
2026-04-18 13:38 34.29728 -69.99236 43133 ft 392 kts 295°
2026-04-18 13:39 34.31853 -70.05310 43127 ft 392 kts 295°
2026-04-18 13:39 34.33973 -70.11384 43123 ft 392 kts 295°
2026-04-18 13:40 34.36089 -70.17458 43122 ft 392 kts 295°
2026-04-18 13:40 34.38203 -70.23535 43121 ft 391 kts 295°
2026-04-18 13:41 34.40313 -70.29614 43120 ft 391 kts 295°
2026-04-18 13:41 34.42379 -70.35681 43119 ft 392 kts 294°
2026-04-18 13:42 34.44470 -70.41773 43118 ft 392 kts 295°
2026-04-18 13:42 34.46578 -70.47858 43118 ft 392 kts 295°
2026-04-18 13:43 34.48689 -70.53952 43117 ft 392 kts 295°
2026-04-18 13:43 34.50792 -70.60043 43116 ft 392 kts 295°
2026-04-18 13:44 34.52896 -70.66155 43115 ft 392 kts 295°
2026-04-18 13:44 34.54990 -70.72259 43114 ft 392 kts 295°
2026-04-18 13:45 34.57068 -70.78328 43114 ft 392 kts 295°
2026-04-18 13:45 34.59158 -70.84451 43113 ft 392 kts 295°
2026-04-18 13:46 34.61239 -70.90561 43112 ft 392 kts 295°
2026-04-18 13:46 34.63320 -70.96685 43112 ft 392 kts 295°
2026-04-18 13:47 34.65394 -71.02799 43111 ft 392 kts 295°
2026-04-18 13:47 34.67456 -71.08891 43110 ft 392 kts 295°
2026-04-18 13:48 34.69539 -71.15059 43110 ft 391 kts 295°
2026-04-18 13:48 34.71590 -71.21144 43109 ft 391 kts 295°
2026-04-18 13:49 34.73653 -71.27278 43108 ft 391 kts 295°
2026-04-18 13:49 34.75710 -71.33404 43108 ft 391 kts 294°
2026-04-18 13:50 34.77768 -71.39546 43107 ft 391 kts 294°
2026-04-18 13:50 34.79817 -71.45675 43106 ft 391 kts 294°
2026-04-18 13:51 34.81864 -71.51809 43106 ft 391 kts 294°
2026-04-18 13:51 34.83908 -71.57946 43106 ft 391 kts 294°
2026-04-18 13:52 34.85952 -71.64094 43107 ft 391 kts 294°
2026-04-18 13:52 34.87976 -71.70197 43106 ft 391 kts 294°
2026-04-18 13:53 34.90012 -71.76349 43106 ft 391 kts 294°
2026-04-18 13:53 34.92044 -71.82498 43105 ft 391 kts 294°
2026-04-18 13:54 34.94070 -71.88643 43105 ft 391 kts 294°
2026-04-18 13:54 34.95754 -71.93760 43104 ft 391 kts 294°
2026-04-18 13:55 34.97773 -71.99908 43103 ft 391 kts 294°
2026-04-18 13:55 34.99787 -72.06052 43102 ft 389 kts 294°
2026-04-18 13:56 35.01788 -72.12171 43102 ft 388 kts 294°
2026-04-18 13:56 35.03784 -72.18285 43101 ft 388 kts 294°
2026-04-18 13:57 35.05775 -72.24394 43101 ft 388 kts 294°
2026-04-18 13:57 35.07754 -72.30480 43100 ft 388 kts 294°
2026-04-18 13:58 35.09742 -72.36606 43098 ft 388 kts 294°
2026-04-18 13:58 35.11729 -72.42742 43096 ft 388 kts 294°
2026-04-18 13:59 35.13708 -72.48865 43095 ft 387 kts 294°
2026-04-18 13:59 35.15685 -72.54995 43095 ft 387 kts 294°
2026-04-18 14:00 35.17660 -72.61129 42908 ft 388 kts 294°
2026-04-18 14:00 35.18638 -72.64175 42447 ft 384 kts 294°
2026-04-18 14:00 35.19607 -72.67198 41994 ft 380 kts 294°
2026-04-18 14:01 35.20568 -72.70198 41542 ft 376 kts 294°
2026-04-18 14:01 35.21517 -72.73164 41091 ft 373 kts 294°
2026-04-18 14:01 35.22459 -72.76114 40639 ft 370 kts 294°
2026-04-18 14:01 35.23391 -72.79030 40190 ft 367 kts 294°
2026-04-18 14:02 35.24307 -72.81901 39743 ft 364 kts 294°
2026-04-18 14:02 35.25223 -72.84773 39294 ft 362 kts 294°
2026-04-18 14:02 35.26136 -72.87639 38842 ft 360 kts 295°
2026-04-18 14:02 35.27042 -72.90483 38392 ft 358 kts 295°
2026-04-18 14:03 35.27942 -72.93313 37942 ft 356 kts 295°
2026-04-18 14:03 35.28839 -72.96132 37491 ft 355 kts 294°
2026-04-18 14:03 35.29733 -72.98947 37040 ft 354 kts 295°
2026-04-18 14:03 35.30623 -73.01750 36590 ft 353 kts 294°
2026-04-18 14:04 35.31511 -73.04548 36139 ft 352 kts 294°
2026-04-18 14:04 35.32396 -73.07343 35688 ft 351 kts 294°
2026-04-18 14:04 35.33281 -73.10136 35237 ft 351 kts 294°
2026-04-18 14:04 35.34162 -73.12923 34787 ft 351 kts 294°
2026-04-18 14:05 35.35031 -73.15672 34342 ft 350 kts 294°
2026-04-18 14:05 35.35910 -73.18457 33892 ft 350 kts 294°
2026-04-18 14:05 35.36788 -73.21240 33442 ft 350 kts 294°
2026-04-18 14:05 35.37668 -73.24033 32990 ft 350 kts 294°
2026-04-18 14:06 35.38548 -73.26828 32538 ft 350 kts 294°
2026-04-18 14:06 35.39423 -73.29612 32088 ft 350 kts 294°
2026-04-18 14:06 35.40298 -73.32397 31638 ft 350 kts 294°
2026-04-18 14:06 35.41172 -73.35183 31187 ft 350 kts 294°
2026-04-18 14:07 35.42046 -73.37970 30737 ft 350 kts 294°
2026-04-18 14:07 35.42919 -73.40757 30287 ft 350 kts 294°
2026-04-18 14:07 35.43793 -73.43551 29835 ft 350 kts 294°
2026-04-18 14:07 35.44665 -73.46341 29385 ft 350 kts 294°
2026-04-18 14:08 35.46404 -73.51913 28513 ft 349 kts 294°
2026-04-18 14:08 35.47269 -73.54690 28146 ft 348 kts 294°
2026-04-18 14:08 35.48130 -73.57454 27789 ft 346 kts 294°
2026-04-18 14:09 35.48976 -73.60174 27441 ft 344 kts 294°
2026-04-18 14:09 35.49828 -73.62917 27090 ft 344 kts 294°
2026-04-18 14:09 35.50678 -73.65655 26731 ft 343 kts 294°
2026-04-18 14:09 35.51529 -73.68396 26374 ft 343 kts 294°
2026-04-18 14:10 35.52378 -73.71135 26021 ft 342 kts 293°
2026-04-18 14:10 35.53224 -73.73869 25670 ft 342 kts 293°
2026-04-18 14:10 35.54069 -73.76601 25320 ft 342 kts 293°
2026-04-18 14:10 35.54913 -73.79333 24969 ft 342 kts 293°
2026-04-18 14:11 35.55755 -73.82060 24620 ft 342 kts 293°
2026-04-18 14:11 35.56600 -73.84799 24269 ft 343 kts 293°
2026-04-18 14:11 35.57444 -73.87535 23919 ft 343 kts 293°
2026-04-18 14:11 35.58291 -73.90287 23565 ft 344 kts 293°
2026-04-18 14:12 35.59137 -73.93032 23211 ft 344 kts 293°
2026-04-18 14:12 35.59981 -73.95775 22861 ft 344 kts 293°
2026-04-18 14:12 35.60826 -73.98529 22510 ft 344 kts 293°
2026-04-18 14:12 35.61662 -74.01254 22163 ft 344 kts 293°
2026-04-18 14:13 35.62506 -74.04011 21813 ft 344 kts 293°
2026-04-18 14:13 35.63216 -74.06329 21518 ft 344 kts 293°
2026-04-18 14:13 35.64055 -74.09073 21169 ft 345 kts 293°
2026-04-18 14:13 35.64902 -74.11845 20818 ft 345 kts 293°
2026-04-18 14:14 35.65747 -74.14616 20466 ft 345 kts 293°
2026-04-18 14:14 35.66590 -74.17379 20115 ft 345 kts 293°
2026-04-18 14:14 35.67431 -74.20142 19765 ft 345 kts 293°
2026-04-18 14:14 35.68263 -74.22873 19419 ft 345 kts 293°
2026-04-18 14:15 35.69103 -74.25635 19070 ft 345 kts 292°
2026-04-18 14:15 35.69946 -74.28409 18719 ft 346 kts 293°
2026-04-18 14:15 35.70789 -74.31177 18364 ft 346 kts 292°
2026-04-18 14:15 35.71634 -74.33956 18011 ft 346 kts 292°
2026-04-18 14:16 35.72478 -74.36737 17660 ft 346 kts 292°
2026-04-18 14:16 35.73323 -74.39525 17308 ft 347 kts 292°
2026-04-18 14:16 35.74164 -74.42305 16958 ft 347 kts 292°
2026-04-18 14:16 35.75005 -74.45088 16607 ft 347 kts 292°
2026-04-18 14:17 35.75844 -74.47869 16257 ft 347 kts 292°
2026-04-18 14:17 35.76683 -74.50649 15909 ft 347 kts 292°
2026-04-18 14:17 35.78366 -74.56235 15205 ft 347 kts 292°
2026-04-18 14:18 35.80020 -74.61753 14503 ft 336 kts 292°
2026-04-18 14:18 35.80825 -74.64436 14151 ft 331 kts 292°
2026-04-18 14:19 35.82395 -74.69681 13454 ft 326 kts 292°
2026-04-18 14:19 35.83186 -74.72329 13099 ft 324 kts 292°
2026-04-18 14:19 35.84734 -74.77510 12401 ft 323 kts 292°
2026-04-18 14:20 35.85509 -74.80107 12051 ft 322 kts 292°
2026-04-18 14:20 35.86280 -74.82700 11700 ft 321 kts 292°
2026-04-18 14:20 35.87023 -74.85205 11349 ft 303 kts 291°
2026-04-18 14:20 35.87734 -74.87601 10997 ft 292 kts 291°
2026-04-18 14:21 35.88420 -74.89917 10646 ft 283 kts 291°
2026-04-18 14:21 35.89077 -74.92134 10294 ft 268 kts 291°
2026-04-18 14:21 35.89700 -74.94239 9943 ft 257 kts 291°
2026-04-18 14:22 35.90892 -74.98263 9240 ft 244 kts 291°
2026-04-18 14:22 35.91470 -75.00214 8889 ft 240 kts 291°
2026-04-18 14:22 35.92608 -75.04054 8187 ft 236 kts 290°
2026-04-18 14:23 35.93170 -75.05955 7834 ft 235 kts 290°
2026-04-18 14:23 35.94280 -75.09728 7133 ft 233 kts 290°
2026-04-18 14:23 35.94835 -75.11606 6783 ft 232 kts 290°
2026-04-18 14:24 35.95939 -75.15345 6083 ft 232 kts 290°
2026-04-18 14:24 35.96491 -75.17214 5733 ft 231 kts 290°
2026-04-18 14:24 35.97041 -75.19083 5382 ft 231 kts 289°
2026-04-18 14:25 35.97582 -75.20923 5036 ft 231 kts 289°
2026-04-18 14:25 35.98129 -75.22786 4685 ft 231 kts 289°
2026-04-18 14:25 35.98676 -75.24651 4335 ft 230 kts 289°
2026-04-18 14:25 35.99221 -75.26509 3984 ft 230 kts 289°
2026-04-18 14:26 35.99768 -75.28378 3632 ft 230 kts 289°
2026-04-18 14:26 36.00313 -75.30235 3281 ft 230 kts 289°
2026-04-18 14:26 36.00856 -75.32090 2931 ft 230 kts 289°
2026-04-18 14:26 36.01400 -75.33949 2579 ft 230 kts 289°
2026-04-18 14:27 36.01940 -75.35794 2364 ft 224 kts 289°
2026-04-18 14:27 36.02459 -75.37568 2284 ft 215 kts 289°
2026-04-18 14:27 36.02959 -75.39279 2215 ft 209 kts 289°
2026-04-18 14:27 36.03442 -75.40935 2193 ft 202 kts 289°
2026-04-18 14:28 36.03911 -75.42542 2190 ft 196 kts 289°
2026-04-18 14:28 36.04366 -75.44105 2190 ft 191 kts 289°
2026-04-18 14:28 36.04813 -75.45639 2190 ft 188 kts 289°
2026-04-18 14:28 36.05252 -75.47148 2191 ft 185 kts 289°
2026-04-18 14:29 36.05686 -75.48641 2190 ft 183 kts 289°
2026-04-18 14:29 36.06110 -75.50100 2191 ft 182 kts 289°
2026-04-18 14:29 36.06536 -75.51567 2191 ft 181 kts 289°
2026-04-18 14:29 36.06957 -75.53026 2189 ft 180 kts 287°
2026-04-18 14:30 36.06979 -75.54542 2115 ft 182 kts 248°
2026-04-18 14:30 36.06244 -75.55767 2029 ft 176 kts 225°
2026-04-18 14:30 36.05318 -75.56743 1884 ft 175 kts 219°
2026-04-18 14:30 36.04352 -75.57656 1731 ft 173 kts 217°
2026-04-18 14:31 36.03435 -75.58511 1669 ft 153 kts 217°
2026-04-18 14:31 36.02684 -75.59217 1710 ft 119 kts 220°
2026-04-18 14:31 36.02056 -75.59865 1718 ft 120 kts 219°
2026-04-18 14:31 36.01383 -75.60532 1722 ft 127 kts 219°
2026-04-18 14:32 36.00664 -75.61225 1657 ft 133 kts 218°
2026-04-18 14:32 35.99928 -75.61915 1542 ft 132 kts 217°
2026-04-18 14:32 35.99200 -75.62591 1447 ft 129 kts 217°
2026-04-18 14:32 35.98498 -75.63243 1375 ft 127 kts 217°
2026-04-18 14:33 35.97792 -75.63907 1251 ft 129 kts 217°
2026-04-18 14:33 35.97078 -75.64591 1113 ft 130 kts 217°
2026-04-18 14:33 35.96369 -75.65296 974 ft 132 kts 218°
2026-04-18 14:33 35.95655 -75.66001 874 ft 130 kts 216°
2026-04-18 14:34 35.95197 -75.66467 837 ft 127 kts 217°
2026-04-18 14:34 35.94516 -75.67136 758 ft 125 kts 214°
2026-04-18 14:34 35.93816 -75.67768 591 ft 123 kts 215°
2026-04-18 14:34 35.93138 -75.68395 321 ft 118 kts 218°
2026-04-18 14:35 35.92509 -75.69011 105 ft 113 kts 217°
2026-04-18 14:35 35.91926 -75.69563 18 ft 82 kts 218°
2026-04-18 14:35 35.91679 -75.69803 18 ft 30 kts 217°
2026-04-18 14:35 35.91541 -75.69934 18 ft 13 kts 225°
2026-04-18 14:36 35.91532 -75.70005 18 ft 10 kts 312°
2026-04-18 14:36 35.91587 -75.70077 18 ft 13 kts 326°
2026-04-18 14:36 35.91672 -75.70046 18 ft 14 kts 33°
2026-04-18 14:36 35.91733 -75.70029 18 ft 10 kts 312°
2026-04-18 14:37 35.91781 -75.70096 18 ft 10 kts 308°
2026-04-18 14:37 35.91763 -75.70154 18 ft 9 kts 218°
2026-04-18 14:37 35.91717 -75.70200 18 ft 4 kts 219°
2026-04-18 14:37 35.91715 -75.70203 18 ft 0 kts 219°